Regional Weather Roundup
Issued by NWS Wakefield, VA

Home | Current Version | Previous Version | Text Only | Print | Product List | Glossary Off
Versions: 1 2 3 4 5 6 7 8 9 10 11 12 13 14 15 16 17 18 19 20 21 22 23 24 25 26 27 28 29 30 31 32 33 34 35 36 37 38 39 40 41 42 43 44 45 46 47 48 49 50

000
ASUS41 KAKQ 030615
RWRAKQ

REGIONAL WEATHER ROUNDUP
NATIONAL WEATHER SERVICE WAKEFIELD VA
200 AM EDT WED JUN 03 2015

Note: "fair" indicates few or no clouds below 12,000 feet with no
significant weather and/or obstructions to visibility. * = Denotes
station may not report precipitation (e.g., rain,snow,etc.),
thunder or fog.

VAZ042-051-052>054-056-030700-
NORTHERN VIRGINIA

CITY           SKY/WX    TMP DP  RH WIND       PRES   REMARKS
WASH NATIONAL  DRIZZLE   60  56  86 NE12      30.14S FOG
DULLES         DRIZZLE   57  55  93 N8        30.14S
FORT BELVOIR   LGT RAIN  58  56  94 VRB2      30.13F
QUANTICO       CLOUDY    59  56  89 E14       30.13S
FREDERICKSBRG* CLOUDY    60  60 100 N5        30.11F
STAFFORD*      CLOUDY    57  56  94 NE6       30.16F
WARRENTON      LGT RAIN  58  58 100 N6        30.13S
CULPEPER*      CLOUDY    56  56  97 N3        30.14S
MANASSAS*        N/A    N/A N/A N/A NE6       30.13F
LEESBURG*      CLOUDY    57  57 100 CALM      30.16S FOG
WINCHESTER     CLOUDY    59  57  94 CALM      30.15S
FRONT ROYAL*   CLOUDY    55  54  94 CALM      30.14S
LURAY*         CLOUDY    59  59 100 N8        30.14S
$$

VAZ048-049-060>072-079>083-030700-
CENTRAL AND SOUTH CENTRAL VIRGINIA

CITY           SKY/WX    TMP DP  RH WIND       PRES   REMARKS
RICHMOND       DRIZZLE   61  59  93 NE8       30.09S FOG
CHESTERFIELD*  NOT AVBL
PETERSBURG*    LGT RAIN  62  62 100 N9        30.08S
HANOVER        CLOUDY    59  58  96 VRB5      30.11S FOG
TAPPAHANNOCK*  DRIZZLE   60  57  88 NE8       30.10S
QUINTON*       CLOUDY    60  59  98 NE5       30.09R
CHARLOTTSVILLE LGT RAIN  58  55  90 NE9       30.12S
GORDONSVILLE*  CLOUDY    57  55  94 N6        30.11F
ORANGE*        CLOUDY    59  55  88 N7        30.14S
LOUISA*        DRIZZLE   59  57  94 N6        30.10F
BUMPASS*       CLOUDY    57  56  97 NE5       30.11S
FARMVILLE*     LGT RAIN  60  60 100 NE9       30.08S
CREWE*         CLOUDY    59  58  96 N3        30.08S
FORT PICKETT*  CLOUDY    59  59 100 N6        30.07F
CHASE CITY*    CLOUDY    61  61 100 NE7       30.06S
CLARKSVILLE*   CLOUDY    61  59  94 NE7       30.04F
SOUTH HILL*    CLOUDY    60  59  98 N8        30.11S
LAWRENCEVILLE* CLOUDY    61  61 100 N3        30.05F
EMPORIA*       LGT RAIN  63  63 100 NW6       30.07R
$$

VAZ088>098-030700-
SOUTHEAST VIRGINIA

CITY           SKY/WX    TMP DP  RH WIND       PRES   REMARKS
NORFOLK        CLOUDY    64  62  93 NE13      30.04F
VIRGINIA BEACH CLOUDY    66  63  90 NE10      30.03F FOG
NORFOLK NAVAL  CLOUDY    69  63  81 NE14      30.06S
WEST POINT*    CLOUDY    63  60  91 N6        30.10S
SALUDA*        CLOUDY    61  59  95 N9        30.08S
NEWPORT NEWS   LGT RAIN  68  62  81 NE6       30.05F
LANGLEY AFB    CLOUDY    64  63  94 NE14      30.04S
FORT EUSTIS    CLOUDY    63 N/A N/A N6        30.04S
WILLIAMSBURG*  CLOUDY    64  64 100 N3        30.08R
HR EXEC AP*    CLOUDY    64  63  94 NE6       30.06S
FRANKLIN*      CLOUDY    64  63  97 NE8       30.06R FOG
WAKEFIELD      CLOUDY    63  61  93 VRB5      30.06S
$$

VAZ020-022-025-037-045-030700-
WEST CENTRAL AND SOUTHWEST VIRGINIA

CITY           SKY/WX    TMP DP  RH WIND       PRES   REMARKS
STAUNTON*      CLOUDY    61  57  88 NE7       30.14S
WAYNESBORO*    CLOUDY    56  56  99 N7        30.12S
HOT SPRINGS VA RAIN      53  53 100 E9        30.12F VSB<1/4
LYNCHBURG      LGT RAIN  58  57  97 NE12G17   30.09F
DANVILLE       CLOUDY    63  60  90 NE9       30.04S
SOUTH BOSTON*  CLOUDY    60  59  95 NE7       30.05F
MARTINSVILLE   CLOUDY    63  63 100 CALM      30.08S
ROANOKE        LGT RAIN  61  60  97 NE7       30.09S
BLACKSBURG     CLOUDY    61  59  94 NE5       30.11S
DUBLIN*        CLOUDY    63  63 100 E3        30.10R
MARION*        CLOUDY    62  60  93 E6        30.10F
HILLSVILLE*    CLOUDY    60  59  97 E5        30.11S
RICHLANDS*     FOG       59  59 100 N3        30.08S VSB 1/4
WISE*          FOG       57  57 100 CALM      30.10F VSB<1/4
ABINGDON*      MOCLDY    61  61 100 CALM      30.06S FOG
$$

MDZ021>025-VAZ099-100-030700-
SOUTHERN MARYLAND AND THE DELMARVA PENINSULA

CITY           SKY/WX    TMP DP  RH WIND       PRES   REMARKS
PATUXENT RIVER CLOUDY    58  56  93 NE13      30.11S
BAY BRIDGE APT   N/A    N/A N/A N/A E7        30.15S
LEONARDTOWN    CLOUDY    57  55  94 CALM      30.13S
DOVER          DRIZZLE   55  55 100 NE10      30.11S FOG
GEORGETOWN     CLOUDY    57  55  93 NE13      30.13R
EASTON         CLOUDY    57  57 100 NE10      30.17R FOG
CAMBRIDGE      CLOUDY    59  55  88 NE8       30.12R
SALISBURY      CLOUDY    57  56  96 NE12      30.10R
OCEAN CITY     LGT RAIN  60  57  89 NE15G22   30.09S
WALLOPS ISLAND CLOUDY    62  61  96 NE17      30.07F
ACCOMACK*      CLOUDY    61  61 100 NE12      30.06F
$$

NCZ012>017-030>032-030700-
NORTH CENTRAL AND EASTERN NORTH CAROLINA

CITY           SKY/WX    TMP DP  RH WIND       PRES   REMARKS
ROANOKE RAPIDS RAIN      64  63  94 NE7       30.03S
RALEIGH        CLOUDY    66  64  93 E3        30.01F
ELIZABETH CITY CLOUDY    68  67  96 N9        30.02F FOG
AHOSKIE*       CLOUDY    68  67  96 NE7       30.03S
EDENTON*         N/A     68  67  96 NE5       30.02S
CURRITUCK*     CLOUDY    69  67  93 N8        30.03F FOG
KILL DEVIL HLS CLOUDY    67  67  99 CALM      30.00F
MANTEO         CLOUDY    69  68  96 CALM      30.02S
CAPE HATTERAS  CLOUDY    71  67  87 CALM      30.01S
TARBORO*       CLOUDY    71  69  95 CALM      30.02S
GOLDSBORO      CLOUDY    70  69  98 CALM      29.98S
WASHINGTON     LGT RAIN  69  68  98 NE5       30.01F
GREENVILLE     HVY RAIN  70  70 100 CALM      30.03S
NEW BERN       CLOUDY    70  68  93 CALM      30.00F
WILMINGTON     MOCLDY    72  70  93 E3        29.97F
$$

VAZ048-030700-
ELSEWHERE

CITY           SKY/WX    TMP DP  RH WIND       PRES   REMARKS
HARRISBURG PA  DRIZZLE   58  55  90 E5        30.16R FOG
BALTIMORE      LGT RAIN  55  55 100 NE8       30.14S FOG
ANNAPOLIS      CLOUDY    58  58 100 NE7       30.13F FOG
ANDREWS AFB    CLOUDY    57  56  99 NE8       30.12F
PHILADELPHIA   CLOUDY    55  52  89 NE8       30.18R
HENDERSON NC   LGT RAIN  62  60  92 NE7G16    30.04S
GREENSBORO     CLOUDY    64  63  96 NE8       30.03S
ROCKY MOUNT    CLOUDY    70  69  97 CALM      30.01S
$$

VAZ100-030700-
MARINE

STATION/POSITION TIME  TEMP    WIND        PRES    WAVE   SWELL
                       AIR SEA DIR/SP/G            HT/PER HT/PER
                 (UTC) (F)     (DEG/KT/KT) (MB)    (FT/S) (FT/S)
BRANDYWINE LGT   0500   56 61   80/ 22/ 24 1019.7F
CAPE MAY NJ      0500   56 64   50/  9/ 14 1019.3F
LEWES DE         0500   58 63   70/ 19/ 22 1019.7F
15NM E FENWICK I 0550   61 65              1018.1R   7/ 7
OCEAN-CITY-INLET 0500   60 56   60/  8/ 18 1018.7F
WACHAPREAGUE VA  0500   62 70   40/ 18/ 23 1017.8R
THOMAS POINT MD  0600   57 71   60/ 14/ 16 1020.9F
GOOSES REEF MD   0600   60 72   60/ 14/ 17 1020.8R   2/ 3
COVE POINT MD    0500   58      70/ 13/ 15 1020.4F
SOLOMONS ISLAND  0500      72                N/A
BISHOPS HEAD MD  0500   59 69   50/ 10/ 18 1018.9S
PINEY POINT MD   0500           60/  8/ 11   N/A
CAMBRIDGE MD     0500   58 74   40/  9/ 14 1019.6F
LEWISETTA VA     0500   61 73              1018.9R
RAPPAHANNOCK LGT 0500           40/ 14/ 16 1018.6R
STINGRAY PT      0600   63 73   40/ 16/ 19 1017.7F   3/ 3
YORK RVR RNG VA  0500   65      50/ 14/ 16 1017.2F
YORKTOWN VA      0500   65 75   30/ 10/ 13 1017.7F
JAMESTOWN VA     0500   62 80   40/  6/ 12   N/A
DOMINION TERM VA 0500   65      50/  7/ 13 1017.6F
KIPTOPEKE VA     0500      73   60/ 10/ 15   N/A
CHES BAY BRIDGE  0500   63 63   30/ 13/ 15 1016.9F
CAPE HENRY VA    0500   63      20/ 18/ 20 1016.1R
CHESAPEAKE LGHT  0500   66      30/ 17/ 18 1017.2S
WILLOUBY STN VA  0500   65      30/ 14/ 16 1018.2F
CAPE HENRY BUOY  0528      65                N/A     5/ 6
1ST LANDING BUOY 0500      64              1017.2R
CAPE CHARLES BUO 0526      66                N/A     5/ 7   2/13
OFFSHORE WE BUOY 0511      70                N/A     5/ 6   2/12
64NM E OF VA BCH 0550   72 73  190/  2/  4 1015.8F   4/ 7   3/ 7
DUCK PIER NC     0500   64 58  360/  7/ 10 1015.6F
44100 DUCK FRF   0524      70                N/A     3/ 7
44056 DUCK FRF   0511      62                N/A     3/ 8
OREGON INLET NC  0500   70 75  350/  3/  4 1016.4F
HATTERAS NC      0500   75 78  200/  2/  2 1015.7F
DIAMOND SHLS NC  0550   74 81  350/ 10/ 21 1016.3R   3/ 8   2/ 8
CAPE LOOKOUT NC  0600   76      90/  2/  3 1015.2F
$$



USA.gov is the U.S. government's official web portal to all federal, state and local government web resources and services.